Powrót do katalogu

STARLINK-5023

AktywnyŁącznośćVLEO
NORAD 53919·PAYLOAD·🇺🇸 United States

Wystrzelony Sep 24, 2022 z Cape Canaveral Space Force Station

Loading…

Następne Przeloty (najbliższe 24 godziny)

TLE

ŚwieżeSource: CelesTrak SupGP

Epoka: Sep 14, 2026, 20:50 UTC

1 53919C 22119AK  26257.86854167 -.00024717  00000+0 -79473-3 0  2571
2 53919  53.1591 171.3962 0001452  92.2516 255.6045 15.31718711    12

Śledź STARLINK-5023 w czasie rzeczywistym z AllMySat

Download on the App Store